Miscellaneous Local Product
Issued by NWS North Platte, NE

Home | Current Version | Previous Version | Text Only | Print | Product List | Glossary On
Versions: 1 2 3 4 5 6 7 8 9 10 11 12 13 14 15 16 17 18 19 20 21 22 23 24 25 26 27 28 29 30 31 32 33 34 35 36 37 38 39 40 41 42 43 44 45 46 47 48 49 50
000
AXUS43 KLBF 301010
MISLBF


WESTERN AND NORTH CENTRAL NEBRASKA HOURLY WEATHER ROUNDUP
NATIONAL WEATHER SERVICE NORTH PLATTE NE
500 AM CDT SAT APR 30 2016

NOTE: "FAIR" INDICATES FEW OR NO CLOUDS BELOW 12,000 FEET WITH NO
SIGNIFICANT WEATHER AND/OR OBSTRUCTIONS TO VISIBILITY.

NOTE: STATIONS NOT REPORTING VARIABLES SUCH AS SKY/WEATHER OR
PRESSURE ARE PROVIDED BY RAWS AND APRS NETWORKS AND ARE NOT UNDER
NATIONAL WEATHER SERVICE QUALITY CONTROL.

...OBSERVATIONS IN AND NEAR THE EASTERN PANHANDLE OF NEBRASKA...

CITY           SKY/WX    TMP DP  RH WIND       PRES   REMARKS
PINE RIDGE     LGT RAIN  37  34  89 N15       29.94F WCI  28
CHADRON        LGT RAIN  37  35  92 NE12      29.95F WCI  29
ALLIANCE       LGT SNOW  32  32 100 N10       29.89S VSB 1   WCI  24
SIDNEY         LGT SNOW  32  30  92 N15       29.86S FOG     WCI  22
CRESCENT LAKE    N/A     32  28  84 N6          N/A  WCI  26
BIG SPRINGS      N/A     34  33  96 CALM        N/A
$$

...OBSERVATIONS IN NORTHERN NEBRASKA AND FAR SOUTHERN SOUTH DAKOTA...

CITY           SKY/WX    TMP DP  RH WIND       PRES   REMARKS
WINNER         LGT RAIN  44  40  85 NE10      29.94S
VALENTINE      LGT RAIN  41  38  89 NE16G23   29.90S
THEDFORD       LGT SNOW  34  33  97 NE7       29.86S WCI  28
AINSWORTH      LGT RAIN  39  38  94 E18G31    29.88S WCI  30
O`NEILL        RAIN      41  39  93 NE12      29.86R
ORD            RAIN      40  39  97 NE6       29.81F FOG
BROKEN BOW     LGT SNOW  34  33  96 N6        29.81F FOG     WCI  29
VALENTINE NWR    N/A     38  37  97 NE13G21     N/A  WCI  30
BUTTE            N/A     41  39  94 NE16        N/A
HALSEY           N/A     36  35  96 NE7G15      N/A  WCI  30
CHAMBERS         N/A     40  39  97 N8          N/A  WCI  34
EWING            N/A     41  40  95 NE14G21     N/A
$$

...OBSERVATIONS IN SOUTHWEST NEBRASKA AND FAR NORTHEAST COLORADO...

CITY           SKY/WX    TMP DP  RH WIND       PRES   REMARKS
IMPERIAL       CLOUDY    33  32  96 N12       29.82F WCI  24
OGALLALA       LGT RAIN  33  32  94 N12       29.84F WCI  25
NORTH PLATTE   LGT SNOW  33  32  96 N8        29.82S FOG     WCI  26
MCCOOK         MIX PCPN  35  34  96 NW15      29.79F FOG     WCI  25
LEXINGTON      DRIZZLE   37  35  90 NE10      29.79R WCI  30
PAXTON           N/A     33  30  90 CALM        N/A
STAPLETON        N/A     32  32  99 CALM        N/A
GOTHENBURG       N/A     34  31  90 N6          N/A  WCI  29
CALLAWAY         N/A     32  32  99 NE8         N/A  WCI  25
$$

...OBSERVATIONS IN CENTRAL LINCOLN COUNTY AREA...

CITY           SKY/WX    TMP DP  RH WIND       PRES   REMARKS
N.P. AIRPORT   LGT SNOW  33  32  96 N8        29.82S FOG     WCI  26
N.P. DOWNTOWN    N/A     32  32  99 CALM        N/A
N.P. SOUTHEAST   N/A     32  32 100 CALM        N/A
N.P. HILLCREST   N/A     32  28  84 NE6         N/A  WCI  26
$$

...SOME OBSERVATIONS FROM AROUND THE REGION...

CITY           SKY/WX    TMP DP  RH WIND       PRES   REMARKS
DENVER         LGT SNOW  32  29  88 N12       29.87S VSB 1   WCI  23
LARAMIE        LGT SNOW  26  24  92 NW13      29.86F FOG     WCI  15
CHEYENNE       LGT SNOW  29  26  89 N9        29.87R FOG     WCI  20
SCOTTSBLUFF    LGT SNOW  33  31  92 NW7       29.92S FOG     WCI  27
RAPID CITY     CLOUDY    40  37  89 N12       30.02S WCI  33
BISMARCK       CLOUDY    38  32  79 NE10      30.14S WCI  31
PIERRE         PTCLDY    41  37  86 NE13      30.01R
SIOUX FALLS    CLOUDY    44  38  79 E16G26    29.94F
OMAHA          LGT RAIN  46  43  89 E14G26    29.77S
GRAND ISLAND   RAIN      42  40  92 NE9       29.77F FOG
KANSAS CITY    CLOUDY    54  53  97 E14       29.65F FOG
WICHITA        CLOUDY    51  49  92 NW13      29.68R
OKLAHOMA CITY  CLOUDY    50  49  96 NW12      29.73R
DALLAS         CLOUDY    64  59  83 NW16      29.67R
AMARILLO       CLEAR     37  35  92 NW8       29.82S WCI  31
DODGE CITY     CLOUDY    38  36  92 NW16      29.76S FOG     WCI  29
HAYS           CLOUDY    45  36  70 NW9       29.73S
GOODLAND       CLOUDY    32  31  96 N13       29.79S WCI  22
$$




USA.gov is the U.S. government's official web portal to all federal, state and local government web resources and services.